Wetterstats.de || Aktuelle Messwerte || Aktuelle Wetterkarten NEU! || Radar / Satellit NEU! || Wetterarchiv || Langzeitwerte NEU! || Klim. Kenntage || Met. Ereignisse || Agrarwerte || Echtzeitwerte

Monatsübersicht für Mai 2020 Diagramm
 
Wetter Information zur Wetteranzeige
Zeitraffer
Tageslänge (hh:mm)
Höchsttemperatur in °C
Uhrzeit
Tiefsttemperatur in °C
Uhrzeit
Luftfeuchte (max., in %)
Uhrzeit
Luftfeuchte (min., in %)
Uhrzeit
Luftdruck (max., in hPa)
Uhrzeit
Luftdruck (min., in hPa)
Uhrzeit
Luftdruck (Ø, in hPa)
Regenrate (max, mm/h)
Uhrzeit
Niederschlag in mm
Verdunstung in mm
Solar in W/m² (Ø)
Solar in W/m² (max.)
UV-Index (max.)
Sonnenscheindauer (hh:mm)
Windrichtung (Ø)
Windstärke (Ø in km/h)
Windstärke (Ø in bft)
Windböe (max., in km/h)
Uhrzeit
Windböe (max., in bft)
Uhrzeit
Taupunkt (max., in °C)
Uhrzeit
Taupunkt (min., in °C)
Uhrzeit
Windchill (min., in °C)
Uhrzeit
Gewitterindex (max.)
Uhrzeit
Waldbrandindex (max.)
Uhrzeit
Graslandfeuerindex (max.)
Uhrzeit
Staubsturm-Index (max.)
Uhrzeit
01
Zeitraffer
15:04
17.3
16:35 Uhr
8.9
06:10 Uhr

93
00:00 Uhr
44
16:40 Uhr
1002.2
00:00 Uhr

1000.1
18:35 Uhr
1001.4
24,000
21:35 Uhr
5,800
2.769
268
1021
12:15 Uhr
5.1
12:15 Uhr

03:45:00
6,6
1
27,4
12:15 Uhr

4
10.1
01:40 Uhr
4.4
18:15 Uhr
7.1
04:15 Uhr
2
00:00 Uhr
5.9
00:00 Uhr
5.9
00:00 Uhr
0.0
00:00 Uhr
02
Zeitraffer
15:07
15.2
13:45 Uhr
5.9
06:20 Uhr

95
05:40 Uhr
53
15:05 Uhr
1009.5
23:50 Uhr

1001.5
00:00 Uhr
1004.6
2,400
11:50 Uhr
0,400
2.718
284
1044
14:00 Uhr
5.2
14:00 Uhr

06:28:00
5,4
1
30,6
14:50 Uhr

5
8.5
00:05 Uhr
4.6
15:05 Uhr
5.9
06:20 Uhr
0
00:00 Uhr
5.9
00:00 Uhr
5.9
00:00 Uhr
0.0
00:00 Uhr
03
Zeitraffer
15:11
14.4
18:05 Uhr
5.9
06:00 Uhr

92
05:50 Uhr
50
15:15 Uhr
1017.6
22:30 Uhr

1009.5
00:00 Uhr
1014.9
0,000
00:00 Uhr
0,000
2.286
235
1002
11:30 Uhr
4.5
12:50 Uhr

03:28:00
6,8
1
30,6
12:40 Uhr

5
7.0
09:45 Uhr
3.4
15:15 Uhr
3.4
06:00 Uhr
0
00:00 Uhr
5.9
00:00 Uhr
5.9
00:00 Uhr
0.0
00:00 Uhr
04
Zeitraffer
15:14
10.9
20:00 Uhr
3.9
23:55 Uhr

95
23:35 Uhr
82
09:15 Uhr
1017.5
00:15 Uhr

1016.4
16:55 Uhr
1016.9
2,400
11:55 Uhr
2,200
0.889
118
294
08:10 Uhr
1.3
14:40 Uhr

00:35:00
2,3
1
20,9
13:45 Uhr

4
9.2
13:10 Uhr
3.2
23:45 Uhr
3.9
23:55 Uhr
0
00:00 Uhr
5.9
00:00 Uhr
5.9
00:00 Uhr
0.0
00:00 Uhr
05
Zeitraffer
15:17
11.1
18:40 Uhr
-0.1
05:25 Uhr

96
06:10 Uhr
54
18:45 Uhr
1020.7
23:35 Uhr

1017.1
03:50 Uhr
1018.2
4,800
15:00 Uhr
2,400
2.032
248
1085
12:10 Uhr
5.1
12:10 Uhr

05:02:00
4,8
1
45,1
11:20 Uhr

6
5.4
17:50 Uhr
-0.8
05:25 Uhr
-0.1
05:25 Uhr
0
00:00 Uhr
5.9
00:00 Uhr
5.9
00:00 Uhr
0.0
00:00 Uhr
06
Zeitraffer
15:21
17.0
15:10 Uhr
2.8
00:00 Uhr

94
00:00 Uhr
31
16:15 Uhr
1022.4
11:05 Uhr

1019.7
19:10 Uhr
1021.1
0,000
00:00 Uhr
0,000
5.156
474
891
14:55 Uhr
5.2
13:15 Uhr

11:03:00
9,2
2
43,5
16:00 Uhr

6
6.2
09:35 Uhr
-1.2
20:00 Uhr
2.2
03:10 Uhr
0
00:00 Uhr
5.9
00:50 Uhr
5.9
00:00 Uhr
0.0
00:00 Uhr
07
Zeitraffer
15:25
17.6
18:20 Uhr
5.6
01:40 Uhr

90
23:55 Uhr
45
18:30 Uhr
1022.9
12:40 Uhr

1020.1
19:30 Uhr
1021.4
0,000
00:00 Uhr
0,000
2.743
278
929
14:40 Uhr
5.0
14:40 Uhr

04:49:00
6,0
1
25,7
14:20 Uhr

4
7.1
20:25 Uhr
1.1
00:10 Uhr
3.2
04:20 Uhr
0
00:00 Uhr
5.9
00:00 Uhr
5.9
00:00 Uhr
0.0
00:00 Uhr
08
Zeitraffer
15:28
21.1
16:50 Uhr
2.6
05:45 Uhr

95
06:00 Uhr
26
17:50 Uhr
1020.4
00:00 Uhr

1016.0
18:25 Uhr
1018.0
0,000
00:00 Uhr
0,000
5.055
468
910
13:45 Uhr
5.5
13:40 Uhr

12:20:00
4,6
1
32,2
12:50 Uhr

5
7.4
08:35 Uhr
-2.5
20:30 Uhr
2.6
05:45 Uhr
0
00:00 Uhr
5.9
00:00 Uhr
5.9
00:00 Uhr
0.0
00:00 Uhr
09
Zeitraffer
15:31
23.9
15:15 Uhr
3.4
05:30 Uhr

86
06:05 Uhr
30
15:00 Uhr
1017.5
00:10 Uhr

1012.3
23:30 Uhr
1015.4
0,000
00:00 Uhr
0,000
4.902
472
1002
11:55 Uhr
6.1
12:40 Uhr

11:49:00
2,7
1
20,9
14:10 Uhr

4
8.3
22:20 Uhr
0.8
01:05 Uhr
3.4
05:30 Uhr
0
00:00 Uhr
5.9
00:00 Uhr
5.9
00:00 Uhr
0.0
00:00 Uhr
10
Zeitraffer
15:35
24.7
14:20 Uhr
7.3
05:35 Uhr

95
22:45 Uhr
37
14:00 Uhr
1012.4
00:05 Uhr

1003.0
17:45 Uhr
1006.9
12,000
18:45 Uhr
4,200
3.632
319
1085
13:35 Uhr
5.3
13:05 Uhr

07:01:00
3,9
1
29,0
12:40 Uhr

4
14.9
20:35 Uhr
5.7
05:35 Uhr
7.3
05:35 Uhr
8
21:35 Uhr
5.9
00:00 Uhr
5.9
00:00 Uhr
0.0
00:00 Uhr
11
Zeitraffer
15:38
15.2
00:00 Uhr
2.4
23:50 Uhr

95
00:00 Uhr
73
06:00 Uhr
1011.6
23:35 Uhr

1002.9
00:20 Uhr
1006.9
24,000
12:25 Uhr
5,000
0.762
64
152
18:15 Uhr
1.1
11:45 Uhr

00:20:00
8,0
2
37,0
16:30 Uhr

5
14.4
00:00 Uhr
-0.8
23:50 Uhr
-3.1
15:45 Uhr
8
00:00 Uhr
4.5
08:05 Uhr
5.9
02:50 Uhr
0.0
00:00 Uhr
12
Zeitraffer
15:42
11.7
17:10 Uhr
-1.5
05:10 Uhr

92
05:20 Uhr
46
17:10 Uhr
1016.2
14:00 Uhr

1011.7
00:00 Uhr
1014.6
0,000
00:00 Uhr
0,000
3.023
328
1134
12:35 Uhr
4.9
13:25 Uhr

06:48:00
6,9
1
38,6
13:50 Uhr

5
2.9
10:05 Uhr
-2.9
05:05 Uhr
-1.5
05:10 Uhr
0
00:00 Uhr
1.4
16:25 Uhr
5.8
17:00 Uhr
0.0
00:00 Uhr
13
Zeitraffer
15:45
14.9
16:55 Uhr
5.8
04:20 Uhr

81
23:20 Uhr
41
16:50 Uhr
1013.7
00:00 Uhr

1011.1
18:45 Uhr
1012.6
0,000
00:00 Uhr
0,000
3.302
356
1121
12:05 Uhr
5.8
12:35 Uhr

05:57:00
5,3
1
33,8
10:40 Uhr

5
5.2
20:50 Uhr
0.9
18:00 Uhr
4.4
09:10 Uhr
0
00:00 Uhr
3.3
17:15 Uhr
5.9
00:00 Uhr
0.0
00:00 Uhr
14
Zeitraffer
15:48
14.3
16:40 Uhr
2.8
23:55 Uhr

85
03:00 Uhr
36
14:40 Uhr
1019.7
22:45 Uhr

1012.6
00:55 Uhr
1016.8
0,000
00:00 Uhr
0,000
3.404
339
1118
13:35 Uhr
6.0
12:55 Uhr

06:08:00
5,6
1
29,0
13:20 Uhr

4
4.5
07:20 Uhr
-1.7
14:30 Uhr
2.8
23:55 Uhr
0
00:00 Uhr
4.9
16:30 Uhr
5.9
00:00 Uhr
0.0
00:00 Uhr
15
Zeitraffer
15:51
15.2
16:30 Uhr
-2.1
05:30 Uhr

92
05:35 Uhr
38
14:50 Uhr
1019.7
07:35 Uhr

1017.3
16:15 Uhr
1018.5
0,000
00:00 Uhr
0,000
4.318
441
1078
12:55 Uhr
5.9
12:10 Uhr

08:02:00
6,5
1
38,6
19:35 Uhr

5
3.7
23:20 Uhr
-3.3
05:30 Uhr
-2.1
05:30 Uhr
0
00:00 Uhr
5.9
09:00 Uhr
5.9
00:00 Uhr
0.0
00:00 Uhr


 
Wetter Information zur Wetteranzeige
Zeitraffer
Tageslänge (hh:mm)
Höchsttemperatur in °C
Uhrzeit
Tiefsttemperatur in °C
Uhrzeit
Luftfeuchte (max., in %)
Uhrzeit
Luftfeuchte (min., in %)
Uhrzeit
Luftdruck (max., in hPa)
Uhrzeit
Luftdruck (min., in hPa)
Uhrzeit
Luftdruck (Ø, in hPa)
Regenrate (max, mm/h)
Uhrzeit
Niederschlag in mm
Verdunstung in mm
Solar in W/m² (Ø)
Solar in W/m² (max.)
UV-Index (max.)
Sonnenscheindauer (hh:mm)
Windrichtung (Ø)
Windstärke (Ø in km/h)
Windstärke (Ø in bft)
Windböe (max., in km/h)
Uhrzeit
Windböe (max., in bft)
Uhrzeit
Taupunkt (max., in °C)
Uhrzeit
Taupunkt (min., in °C)
Uhrzeit
Windchill (min., in °C)
Uhrzeit
Gewitterindex (max.)
Uhrzeit
Waldbrandindex (max.)
Uhrzeit
Graslandfeuerindex (max.)
Uhrzeit
Staubsturm-Index (max.)
Uhrzeit
16
Zeitraffer
15:54
15.8
14:30 Uhr
6.2
04:55 Uhr

82
04:55 Uhr
39
14:35 Uhr
1021.0
09:15 Uhr

1018.5
23:20 Uhr
1019.9
0,000
00:00 Uhr
0,000
3.759
344
1148
13:20 Uhr
6.1
13:40 Uhr

05:43:00
8,1
2
37,0
12:15 Uhr

5
5.0
08:55 Uhr
1.4
14:05 Uhr
3.4
06:40 Uhr
0
00:00 Uhr
5.9
00:00 Uhr
5.9
00:00 Uhr
0.0
00:00 Uhr
17
Zeitraffer
15:57
18.2
18:05 Uhr
8.3
05:55 Uhr

91
05:45 Uhr
37
17:40 Uhr
1021.4
11:50 Uhr

1018.2
02:30 Uhr
1020.0
2,400
02:50 Uhr
1,200
4.445
397
1157
13:00 Uhr
5.9
12:35 Uhr

07:45:00
8,2
2
38,6
10:35 Uhr

5
7.5
03:50 Uhr
2.4
17:40 Uhr
4.0
04:00 Uhr
0
00:00 Uhr
5.9
00:00 Uhr
5.9
00:00 Uhr
0.0
00:00 Uhr
18
Zeitraffer
16:00
20.0
16:00 Uhr
11.7
03:10 Uhr

75
23:35 Uhr
44
15:35 Uhr
1021.5
09:25 Uhr

1018.6
20:25 Uhr
1020.1
0,000
00:00 Uhr
0,000
3.277
251
956
12:50 Uhr
6.1
12:50 Uhr

03:58:00
6,7
1
32,2
12:20 Uhr

5
10.2
22:55 Uhr
3.9
00:20 Uhr
8.5
06:20 Uhr
2
21:50 Uhr
5.7
16:15 Uhr
5.9
00:00 Uhr
0.0
00:00 Uhr
19
Zeitraffer
16:03
18.2
13:20 Uhr
9.2
23:25 Uhr

89
23:35 Uhr
55
20:05 Uhr
1021.2
23:15 Uhr

1018.5
05:35 Uhr
1019.1
0,000
00:00 Uhr
0,000
2.871
231
913
12:50 Uhr
7.4
12:45 Uhr

04:16:00
7,3
2
37,0
15:50 Uhr

5
10.8
18:10 Uhr
7.2
23:10 Uhr
9.0
08:30 Uhr
2
00:00 Uhr
5.6
17:05 Uhr
5.9
00:00 Uhr
0.0
00:00 Uhr
20
Zeitraffer
16:06
19.8
14:30 Uhr
4.3
05:25 Uhr

94
03:15 Uhr
37
14:30 Uhr
1024.1
23:40 Uhr

1021.0
02:40 Uhr
1021.9
0,000
00:00 Uhr
0,000
4.724
444
1125
13:25 Uhr
6.5
13:20 Uhr

10:54:00
4,9
1
27,4
17:05 Uhr

4
8.7
08:45 Uhr
3.3
05:25 Uhr
4.3
05:25 Uhr
0
00:00 Uhr
5.9
14:15 Uhr
5.9
00:00 Uhr
0.0
00:00 Uhr
21
Zeitraffer
16:09
21.3
14:30 Uhr
3.0
05:30 Uhr

92
04:50 Uhr
28
17:40 Uhr
1025.4
09:25 Uhr

1023.2
18:05 Uhr
1024.1
0,000
00:00 Uhr
0,000
5.105
468
935
12:55 Uhr
6.1
12:55 Uhr

12:49:00
4,0
1
32,2
14:10 Uhr

5
7.3
08:40 Uhr
1.1
17:20 Uhr
3.0
05:30 Uhr
0
00:00 Uhr
5.9
09:30 Uhr
5.9
00:00 Uhr
0.0
00:00 Uhr
22
Zeitraffer
16:11
22.3
16:25 Uhr
6.1
04:55 Uhr

83
05:20 Uhr
30
12:55 Uhr
1024.1
00:00 Uhr

1019.0
20:40 Uhr
1021.7
2,400
22:55 Uhr
0,400
4.597
357
889
12:35 Uhr
5.8
11:55 Uhr

07:57:00
5,9
1
46,7
12:55 Uhr

6
8.0
23:45 Uhr
2.9
04:20 Uhr
6.1
04:55 Uhr
0
00:00 Uhr
5.9
00:00 Uhr
5.9
00:00 Uhr
0.0
00:00 Uhr
23
Zeitraffer
16:14
18.8
11:50 Uhr
10.6
03:45 Uhr

93
05:50 Uhr
52
14:40 Uhr
1023.3
23:35 Uhr

1017.8
11:55 Uhr
1019.0
14,400
12:30 Uhr
3,600
2.388
202
759
13:40 Uhr
5.1
13:40 Uhr

02:42:00
5,9
1
38,6
18:55 Uhr

5
14.3
13:05 Uhr
6.7
01:20 Uhr
5.5
23:25 Uhr
5
09:55 Uhr
5.9
00:00 Uhr
5.9
00:00 Uhr
0.0
00:00 Uhr
24
Zeitraffer
16:17
16.7
12:40 Uhr
6.9
03:30 Uhr

93
06:15 Uhr
56
12:40 Uhr
1024.1
14:55 Uhr

1022.1
12:35 Uhr
1023.0
12,000
17:55 Uhr
3,000
2.489
244
904
11:40 Uhr
4.9
11:40 Uhr

04:59:00
6,0
1
59,5
14:40 Uhr

7
10.5
19:59 Uhr
5.4
03:25 Uhr
5.9
14:40 Uhr
2
19:59 Uhr
2.8
13:05 Uhr
5.9
00:00 Uhr
0.0
00:00 Uhr
25
Zeitraffer
16:20
14.8
18:00 Uhr
9.7
23:50 Uhr

93
23:55 Uhr
73
18:35 Uhr
1032.0
23:40 Uhr

1023.3
01:30 Uhr
1026.9
4,800
08:50 Uhr
1,600
1.778
180
530
18:00 Uhr
5.1
11:10 Uhr

01:02:00
8,0
2
32,2
11:15 Uhr

5
10.5
15:05 Uhr
7.4
03:20 Uhr
5.5
01:55 Uhr
2
00:00 Uhr
0.3
08:25 Uhr
4.4
04:30 Uhr
0.0
00:00 Uhr
26
Zeitraffer
16:22
20.2
17:20 Uhr
4.9
05:15 Uhr

97
07:05 Uhr
37
15:00 Uhr
1034.8
08:45 Uhr

1032.0
00:00 Uhr
1033.8
0,000
00:00 Uhr
0,000
4.928
475
1123
13:05 Uhr
6.4
13:00 Uhr

10:56:00
4,7
1
24,1
12:50 Uhr

4
10.5
09:00 Uhr
3.7
15:00 Uhr
4.9
05:15 Uhr
2
09:00 Uhr
1.3
16:20 Uhr
5.4
17:00 Uhr
0.0
00:00 Uhr
27
Zeitraffer
16:24
23.0
14:35 Uhr
3.2
05:10 Uhr

93
04:40 Uhr
36
11:45 Uhr
1034.6
01:55 Uhr

1028.4
19:40 Uhr
1031.8
0,000
00:00 Uhr
0,000
4.445
411
1118
14:00 Uhr
6.7
12:25 Uhr

08:28:00
4,0
1
25,7
17:20 Uhr

4
9.9
21:10 Uhr
2.2
05:10 Uhr
3.2
05:10 Uhr
2
22:45 Uhr
3.2
17:00 Uhr
5.9
10:15 Uhr
0.0
00:00 Uhr
28
Zeitraffer
16:27
19.8
14:45 Uhr
10.4
23:55 Uhr

74
06:55 Uhr
40
15:45 Uhr
1030.3
01:00 Uhr

1028.5
14:50 Uhr
1029.4
0,000
00:00 Uhr
0,000
5.283
432
1134
12:30 Uhr
6.2
12:55 Uhr

10:21:00
10,4
2
35,4
10:10 Uhr

5
9.2
00:15 Uhr
4.6
15:40 Uhr
7.6
06:25 Uhr
2
00:00 Uhr
4.2
16:05 Uhr
5.9
00:00 Uhr
0.0
00:00 Uhr
29
Zeitraffer
16:29
20.2
14:05 Uhr
4.7
05:00 Uhr

93
05:10 Uhr
34
14:05 Uhr
1030.8
07:50 Uhr

1026.1
19:20 Uhr
1028.8
0,000
00:00 Uhr
0,000
4.369
372
1151
12:40 Uhr
7.0
13:15 Uhr

09:17:00
5,6
1
27,4
11:35 Uhr

4
8.2
07:40 Uhr
2.2
10:00 Uhr
4.7
05:00 Uhr
0
00:00 Uhr
5.0
14:30 Uhr
5.9
00:00 Uhr
0.0
00:00 Uhr
30
Zeitraffer
16:31
17.3
16:05 Uhr
6.9
05:20 Uhr

87
05:45 Uhr
42
12:30 Uhr
1026.8
02:50 Uhr

1022.5
18:15 Uhr
1024.7
0,000
00:00 Uhr
0,000
5.131
407
1058
12:45 Uhr
6.2
12:45 Uhr

10:47:00
11,3
2
45,1
12:55 Uhr

6
7.1
23:55 Uhr
3.4
13:30 Uhr
6.9
05:20 Uhr
0
00:00 Uhr
5.0
18:20 Uhr
5.9
00:00 Uhr
0.0
00:00 Uhr
31
Zeitraffer
16:33
21.4
15:30 Uhr
9.2
04:30 Uhr

86
04:40 Uhr
46
13:50 Uhr
1023.6
23:55 Uhr

1020.7
16:05 Uhr
1021.9
0,000
00:00 Uhr
0,000
5.715
461
911
13:55 Uhr
6.5
13:05 Uhr

10:43:00
11,8
2
40,2
16:30 Uhr

5
10.1
10:35 Uhr
6.8
04:30 Uhr
7.6
07:35 Uhr
0
00:00 Uhr
5.7
16:05 Uhr
5.9
00:00 Uhr
0.0
00:00 Uhr
Stationsstandorte || Wetterblog || Wissenswertes || Downloads || Seitenhistorie || Partner || Impressum / Datenschutz